This demonstration page uses our WeatherBlox Daily Observations layout. Learn more.

Left ArrowRight Arrow

Hourly Observations for November 3, 2018

Temp ( °F °C ) Dew Point ( °F °C ) Humidity (%) Winds ( mph kmh ) Pressure ( in mb ) Visibility ( mi km ) Precip ( " mm )
12:52 am 00:52 Cloudy 42 5.6 39 3.9 89 89 E 3 6 29.85 1011 10 16 0.00 0.00
1:52 am 01:52 Cloudy 42 5.6 39 3.9 89 89 NW 3 6 29.85 1011 10 16 0.00 0.00
2:52 am 02:52 Cloudy 43 6.1 40 4.4 89 89 WSW 3 6 29.84 1010 10 16 0.00 0.00
3:52 am 03:52 Cloudy 44 6.7 39 3.9 83 83 SSE 5 7 29.83 1010 10 16 0.00 0.00
4:52 am 04:52 Cloudy with Light Rain 44 6.7 39 3.9 83 83 SSE 7 11 29.83 1010 7 11 0.01 0.25
5:52 am 05:52 Cloudy with Light Rain 44 6.7 40 4.4 85 85 S 3 6 29.84 1011 7 11 0.06 1.52
6:10 am 06:10 Cloudy with Rain 44 6.7 40 4.4 85 85 SE 5 7 29.85 1011 6 10 0.02 0.51
6:52 am 06:52 Cloudy with Light Rain 43 6.1 41 5 93 93 SSE 6 9 29.86 1011 4 6 0.09 2.29
7:52 am 07:52 Cloudy with Light Rain 44 6.7 41 5 89 89 SE 6 9 29.88 1012 4 6 0.10 2.54
8:52 am 08:52 Cloudy with Rain 44 6.7 40 4.4 85 85 ESE 6 9 29.89 1012 5 8 0.01 0.25
9:28 am 09:28 Cloudy with Light Rain 44 6.7 41 5 89 89 E 8 13 29.91 1013 3 5 0.06 1.52
9:52 am 09:52 Cloudy with Light Rain 44 6.7 41 5 89 89 E 7 11 29.91 1013 3 5 0.07 1.78
10:48 am 10:48 Cloudy with Light Rain 45 7 41 5 87 87 ESE 8 13 29.94 1014 3 5 0.04 1.02
10:52 am 10:52 Cloudy with Light Rain 44 6.7 41 5 89 89 ESE 9 15 29.92 1013 3 5 0.04 1.02
11:52 am 11:52 Cloudy with Light Rain 44 6.7 41 5 89 89 E 14 22 29.92 1013 5 8 0.03 0.76
12:52 pm 12:52 Cloudy with Light Rain 45 7.2 41 5 86 86 E 17 28 29.90 1012 3 5 0.00 0.03
1:52 pm 13:52 Cloudy with Light Rain 45 7.2 41 5 86 86 E 15 24 29.86 1011 5 8 0.03 0.76
2:52 pm 14:52 Cloudy 46 7.8 41 5 83 83 ENE 12 19 29.85 1011 10 16 0.00 0.03
3:40 pm 15:40 Cloudy 46 7.8 41 5 83 83 ENE 7 11 29.88 1012 10 16 0.00 0.00
3:52 pm 15:52 Cloudy 46 7.8 41 5 83 83 ENE 6 9 29.86 1011 10 16 0.00 0.00
4:52 pm 16:52 Cloudy 46 7.8 41 5 83 83 NNE 7 11 29.89 1012 10 16 0.00 0.00
5:52 pm 17:52 Cloudy 45 7.2 40 4.4 83 83 NNE 6 9 29.91 1013 10 16 0.00 0.00
6:52 pm 18:52 Cloudy with Light Rain 44 6.7 41 5 89 89 N 6 9 29.93 1014 4 6 0.02 0.51
7:45 pm 19:45 Cloudy with Light Rain 43 6.1 41 5 93 93 N 8 13 29.97 1015 3 5 0.02 0.51
7:52 pm 19:52 Cloudy with Light Rain 43 6.1 41 5 93 93 N 9 15 29.93 1014 3 5 0.02 0.51
8:52 pm 20:52 Cloudy with Light Rain 43 6.1 41 5 93 93 N 8 13 29.94 1014 2 3 0.03 0.76
9:52 pm 21:52 Cloudy with Light Rain 43 6.1 41 5 93 93 NNW 9 15 29.94 1014 2 3 0.01 0.25
10:52 pm 22:52 Cloudy with Light Rain 43 6.1 41 5 93 93 N 10 17 29.95 1014 2 3 0.01 0.25
11:52 pm 23:52 Cloudy with Light Rain 43 6.1 41 5 93 93 NNW 13 20 29.95 1014 2 3 0.01 0.25

Powered by AerisWeather